Погода в Торнхилле

Канада     43°48′57″N   79°25′10″W
темп.,
°C
ветер,
м/с
пор.,
м/с
влажн.,
%
обл.,
%
осадки,
мм/ч
давл.,
гПа
погр.,
м
10 мая, пн
пн1023:00+7с3758100 0.0 1014374
02:00+5ссз39635 0.0 1013324
05:00+4сз28670 0.0 1014246
08:00+6зсз47705 0.0 1016362
11:00+11сз455090 0.1 10151744
14:00+11сз4547100 0.3 10151750
17:00+12з564399 0.2 10152250
20:00+9зсз58490 0.4 10171434
11 мая, вт
вт1123:00+5зсз411560 0.0 1018582
02:00+4зсз412710 0.0 1017612
05:00+3зсз411814 0.0 1018490
08:00+4зсз597545 0.0 1019744
11:00+8з684899 0.1 10191928
14:00+10зсз793898 0.1 10182356
17:00+8зсз695791 0.1 10191558
20:00+4зсз41193100 0.3 1021727
12 мая, ср
ср1223:00+5сз6127899 0.0 1022791
02:00+5сз5138113 0.0 1022592
05:00+4сз513860 0.0 1024460
08:00+6ссз511750 0.0 1026412
11:00+11ссз58495 0.0 10261060
14:00+14ссз69320 0.0 10261672
17:00+14ссз69320 0.0 10261801
20:00+11ссз48500 0.0 1026929
13 мая, чт
чт1323:00+8сз311580 0.0 1028373
02:00+7сз38567 0.0 1027187
05:00+6сз37635 0.0 1028168
08:00+8ссз37600 0.0 1029212
11:00+15ссз34480 0.0 10281020
14:00+19ссз443738 0.0 10262330
17:00+17с233962 0.0 10251525
20:00+15с11530 0.0 102529
14 мая, пт
пт1423:00+11ссз24725 0.0 1026111
02:00+9ссз25625 0.0 1025128
05:00+8сз2459100 0.0 102589
08:00+10сз1249100 0.0 1026144
11:00+16юз1135100 0.0 1026685
14:00+20зюз223098 0.0 10231994
17:00+20з2233100 0.0 10222458
20:00+15с366359 0.2 1023365